Zurück zum Katalog

STARLINK-35572

AktivKommunikationVLEO
NORAD 66117·PAYLOAD·🇺🇸 United States

Gestartet Oct 22, 2025 von Vandenberg Space Force Base

Loading…

Nächste Überflüge (nächste 24 Stunden)

TLE

AktuellSource: CelesTrak SupGP

Epoche: Sep 14, 2026, 23:16 UTC

1 66117C 25237D   26257.96993056  .00022319  00000+0  65928-3 0  2575
2 66117  53.1575 239.4746 0001312  93.3187 271.6786 15.34385351    18

Verfolge STARLINK-35572 in Echtzeit mit AllMySat

Download on the App Store